This is the latest recevied weather packets stored in our database for station/object K8EMA-4. If no packets are shown the sender has not sent any weather packets the latest 10 day(s).
| Time | Temp. | Humidity | Pressure | Rain* | Wind** | Luminosity | Snow |
|---|---|---|---|---|---|---|---|
| 1778013087 | 15° C | 100% | 0 hPa | 3.3 mm | - | - | - |
| 1778012821 | 15° C | 100% | 0 hPa | 3.81 mm | - | - | - |
| 1778012486 | 15° C | 100% | 0 hPa | 4.06 mm | - | - | - |
| 1778012187 | 15° C | 100% | 0 hPa | 3.81 mm | - | - | - |
| 1778011885 | 14.44° C | 100% | 0 hPa | 3.81 mm | - | - | - |
| 1778011584 | 15° C | 100% | 0 hPa | 3.3 mm | - | - | - |
| 1778011285 | 15° C | 100% | 0 hPa | 2.79 mm | - | - | - |
| 1778010984 | 15° C | 100% | 0 hPa | 2.29 mm | - | - | - |
| 1778010684 | 15° C | 100% | 0 hPa | 1.78 mm | - | - | - |
| 1778010384 | 15° C | 100% | 0 hPa | 2.03 mm | - | - | - |
| 1778010085 | 15° C | 100% | 0 hPa | 1.78 mm | - | - | - |
| 1778009785 | 14.44° C | 100% | 0 hPa | 1.78 mm | - | - | - |
| 1778009485 | 15° C | 100% | 0 hPa | 1.52 mm | - | - | - |
| 1778009184 | 15° C | 100% | 0 hPa | 0.76 mm | - | - | - |
| 1778008885 | 15.56° C | 100% | 0 hPa | 0.76 mm | - | - | - |
| 1778008584 | 15.56° C | 100% | 0 hPa | 0.76 mm | - | - | - |
| 1778008285 | 16.67° C | 100% | 0 hPa | 0.76 mm | - | - | - |
| 1778007985 | 17.22° C | 100% | 0 hPa | 1.27 mm | - | - | - |
| 1778007685 | 15.56° C | 100% | 0 hPa | 1.27 mm | - | - | - |
| 1778007385 | 15.56° C | 100% | 0 hPa | 1.27 mm | - | - | - |
| 1778007085 | 15.56° C | 100% | 0 hPa | 1.27 mm | - | - | - |
| 1778006785 | 15.56° C | 100% | 0 hPa | 1.02 mm | - | - | - |
| 1778006485 | 15.56° C | 100% | 0 hPa | 1.02 mm | - | - | - |
| 1778006185 | 16.11° C | 100% | 0 hPa | 1.02 mm | - | - | - |
| 1778005885 | 16.11° C | 100% | 0 hPa | 1.02 mm | - | - | - |
* Rain latest hour (hover to see other rain measurements)
** Current wind speed in m/s (hover to see current wind gust speed)